This is the latest recevied weather packets stored in our database for station/object JA3YAI-13. If no packets are shown the sender has not sent any weather packets the latest 10 day(s).
| Time | Temp. | Humidity | Pressure | Rain* | Wind** | Luminosity | Snow |
|---|---|---|---|---|---|---|---|
| 1777855585 | 19.44° C | 65% | 998.5 hPa | 0 mm | - | - | - |
| 1777854985 | 18.89° C | 65% | 998.8 hPa | 0 mm | - | - | - |
| 1777854385 | 18.89° C | 66% | 998.4 hPa | 0 mm | - | - | - |
| 1777853784 | 18.89° C | 69% | 998.7 hPa | 0 mm | - | - | - |
| 1777853184 | 18.89° C | 69% | 998.6 hPa | 0 mm | - | - | - |
| 1777852585 | 18.33° C | 71% | 998.3 hPa | 0 mm | - | - | - |
| 1777851985 | 17.78° C | 72% | 998.1 hPa | 0 mm | - | - | - |
| 1777851384 | 17.78° C | 73% | 998.5 hPa | 0 mm | - | - | - |
| 1777850784 | 17.78° C | 74% | 998 hPa | 0 mm | - | - | - |
| 1777850183 | 17.78° C | 76% | 998 hPa | 0 mm | - | - | - |
| 1777849585 | 17.78° C | 77% | 997.4 hPa | 0 mm | - | - | - |
| 1777848985 | 17.22° C | 78% | 997.9 hPa | 0 mm | - | - | - |
| 1777848384 | 16.67° C | 78% | 997.9 hPa | 0 mm | - | - | - |
| 1777847784 | 16.67° C | 77% | 997.5 hPa | 0 mm | - | - | - |
| 1777847183 | 16.67° C | 78% | 997.6 hPa | 0 mm | - | - | - |
| 1777846585 | 17.22° C | 79% | 997.2 hPa | 0 mm | - | - | - |
| 1777845985 | 16.67° C | 81% | 997.3 hPa | 0 mm | - | - | - |
| 1777845384 | 16.67° C | 80% | 997.3 hPa | 0 mm | - | - | - |
| 1777844784 | 16.67° C | 80% | 997.1 hPa | 0 mm | - | - | - |
| 1777844183 | 16.67° C | 80% | 996.8 hPa | 0 mm | - | - | - |
| 1777843585 | 16.67° C | 79% | 996.4 hPa | 0 mm | - | - | - |
| 1777842985 | 16.11° C | 80% | 996.4 hPa | 0 mm | - | - | - |
| 1777842384 | 16.11° C | 84% | 995.9 hPa | 0 mm | - | - | - |
| 1777841784 | 16.11° C | 84% | 995.9 hPa | 0 mm | - | - | - |
| 1777841185 | 16.11° C | 85% | 995.6 hPa | 0 mm | - | - | - |
* Rain latest hour (hover to see other rain measurements)
** Current wind speed in m/s (hover to see current wind gust speed)